This is the latest recevied weather packets stored in our database for station/object WD4IXD-WX. If no packets are shown the sender has not sent any weather packets the latest 10 day(s).
| Time | Temp. | Humidity | Pressure | Rain* | Wind** | Luminosity | Snow |
|---|---|---|---|---|---|---|---|
| 1778202904 | 8.33° C | 42% | 1019.4 hPa | 0 mm | - | 65 W/m² | - |
| 1778202604 | 8.33° C | 39% | 1019.4 hPa | 0 mm | - | 67 W/m² | - |
| 1778202304 | 8.89° C | 38% | 1019.4 hPa | 0 mm | - | 74 W/m² | - |
| 1778202004 | 8.89° C | 37% | 1019.3 hPa | 0 mm | - | 137 W/m² | - |
| 1778201704 | 8.89° C | 38% | 1019.3 hPa | 0 mm | - | 186 W/m² | - |
| 1778201404 | 8.89° C | 38% | 1019.3 hPa | 0 mm | - | 227 W/m² | - |
| 1778201104 | 8.89° C | 39% | 1019.4 hPa | 0 mm | - | 237 W/m² | - |
| 1778200804 | 8.33° C | 40% | 1019.5 hPa | 0 mm | - | 246 W/m² | - |
| 1778200504 | 8.33° C | 40% | 1019.4 hPa | 0 mm | - | 63 W/m² | - |
| 1778200204 | 8.33° C | 40% | 1019.4 hPa | 0 mm | - | 91 W/m² | - |
| 1778199903 | 8.89° C | 40% | 1019.5 hPa | 0 mm | - | 69 W/m² | - |
| 1778199604 | 8.89° C | 38% | 1019.4 hPa | 0 mm | - | 97 W/m² | - |
| 1778199304 | 8.89° C | 39% | 1019.5 hPa | 0 mm | - | 128 W/m² | - |
| 1778199004 | 8.89° C | 39% | 1019.4 hPa | 0 mm | - | 90 W/m² | - |
| 1778198704 | 8.89° C | 39% | 1019.4 hPa | 0 mm | - | 413 W/m² | - |
| 1778198404 | 9.44° C | 38% | 1019.5 hPa | 0 mm | - | 230 W/m² | - |
| 1778198104 | 10° C | 38% | 1019.5 hPa | 0 mm | - | 478 W/m² | - |
| 1778197804 | 10° C | 37% | 1019.4 hPa | 0 mm | - | 513 W/m² | - |
| 1778197503 | 10° C | 37% | 1019.4 hPa | 0 mm | - | 527 W/m² | - |
| 1778197204 | 10° C | 35% | 1019.4 hPa | 0 mm | - | 561 W/m² | - |
| 1778196904 | 10° C | 37% | 1019.4 hPa | 0 mm | - | 578 W/m² | - |
| 1778196603 | 10° C | 38% | 1019.4 hPa | 0 mm | - | 596 W/m² | - |
| 1778196304 | 10° C | 37% | 1019.4 hPa | 0 mm | - | 350 W/m² | - |
| 1778196003 | 10° C | 35% | 1019.4 hPa | 0 mm | - | 670 W/m² | - |
| 1778195704 | 10° C | 35% | 1019.5 hPa | 0 mm | - | 680 W/m² | - |
* Rain latest hour (hover to see other rain measurements)
** Current wind speed in m/s (hover to see current wind gust speed)